Hourly Data Report for October 14, 2014

All times are specified in Local Standard Time (LST). Add 1 hour to adjust for Daylight Saving Time where and when it is observed.

GJOA HAVEN A
NUNAVUT

68°38'08.000" N
95°51'01.000" W
46.90 m
2302337
71597
YHK

Download Data

Hourly Data (October 2014)
Hourly Data Report for October 14, 2014
Temp Definition
°C
Dew Point Temp Definition
°C
Rel Hum Definition
%
Wind Dir Definition
10's deg

Wind Spd Definition
km/h
Visibility Definition
km
Stn Press Definition
kPa
Hmdx Definition


Wind Chill Definition


Weather Definition


TIME
00:00 Legend Double Dagger -3.7 -4.7 93 7 24 16.1 100.14   -11 LegendNANA
01:00 Legend Double Dagger -3.9 -5.2 91 5 26 16.1 100.19   -11 LegendNANA
02:00 Legend Double Dagger -4.3 -5.4 92 5 22 16.1 100.24   -11 LegendNANA
03:00 Legend Double Dagger -5.1 -5.7 95 7 24 16.1 100.30   -12 LegendNANA
04:00 Legend Double Dagger -5.2 -5.6 97 4 18 16.1 100.35   -11 LegendNANA
05:00 Legend Double Dagger -5.2 -5.2 100 5 17 16.1 100.40   -11 LegendNANA
06:00 Legend Double Dagger -5.3 -5.6 98 4 15 16.1 100.42   -11 LegendNANA
07:00 Legend Double Dagger -5.0 -5.5 96 6 18 16.1 100.44   -11 LegendNANA
08:00 Legend Double Dagger -4.7 -5.5 94 5 15 16.1 100.47   -10 Snow
09:00 Legend Double Dagger -4.3 -5.3 93 5 15 16.1 100.51   -10 LegendNANA
10:00 Legend Double Dagger -4.5 -5.1 96 2 11 16.1 100.55   -9 Snow
11:00 Legend Double Dagger -4.1 -4.8 95 1 11 12.9 100.58   -9 Snow
12:00 Legend Double Dagger -3.5 -3.7 99 1 13 16.1 100.65   -8 Snow
13:00 Legend Double Dagger -2.6 -2.6 100 3 17 14.5 100.67   -8 LegendNANA
14:00 Legend Double Dagger -2.6 -2.6 100 5 18 16.1 100.70   -8 LegendNANA
15:00 Legend Double Dagger -2.5 -2.6 99 5 21 16.1 100.73   -9 Snow
16:00 Legend Double Dagger -3.1 -3.1 100 2 15 16.1 100.75   -8 LegendNANA
17:00 Legend Double Dagger -3.0 -3.1 99 1 15 16.1 100.79   -8 LegendNANA
18:00 Legend Double Dagger -2.9 -3.0 99 2 22 16.1 100.79   -9 LegendNANA
19:00 Legend Double Dagger -2.8 -3.0 98 2 15 16.1 100.81   -8 LegendNANA
20:00 Legend Double Dagger -2.7 -3.1 97 4 22 16.1 100.82   -9 LegendNANA
21:00 Legend Double Dagger -3.0 -3.3 98 2 17 16.1 100.85   -9 LegendNANA
22:00 Legend Double Dagger -3.6 -4.1 96 2 17 16.1 100.86   -9 LegendNANA
23:00 Legend Double Dagger -5.1 -5.5 97 35 15 16.1 100.88   -11 LegendNANA

Notes on Data Quality.

Legend

  • E = Estimated
  • M = Missing
  • NA = Not Available
  • ‡ = Partner data that is not subject to review by the National Climate Archives
Date modified: